CZ-3B DEB, 42474

Orbit data source: Space-Track

CZ-3B DEB, 42474 is space debris in HEO originally from a launch on Mon, 19 Dec 2011 UTC launched from the Xichang Space Center, China (XSC). Debris objects in space refer to the collection of defunct objects orbiting the Earth. Examples of debris include non-operational satellites, rocket bodies, and fragments generated from explosions, collisions, or faulty payload assembly.

Loading next visibility...
Identifier
42474, 2011-077AP
Orbit
HEO
Country
Flag of CNCN / PRC
Related business
Manufacturer
CALT
Mission
Spacecraft
Bus & Motor
Unknown
Mass
Unknown
Launch date (UTC)
2011-12-19 (14 years ago)
Launch vehicle
Unknown
Launch site
Xichang Space Center, China (XSC)
Object type
Payload
Rocket body
Debris
Shape & HBR
Unknown shape, 0.2 m
Radar Cross Section
Medium (>0.1 m² and <1 m²)

Expand to show TLE details & history
Last TLE update: 4 days ago

TLE from 4 days ago
0 CZ-3B DEB
1 42474U 11077AP  26092.08809203 -.00000122  00000-0  00000-0 0  9992
2 42474  22.3924 101.8578 7148313  49.2052 353.8964  1.66952266 67570
Epoch: 2026-04-02T02:06Z
TLE epoch observation values (Epoch: 2026-04-02T02:06:51.151Z)
Latitude
0.0001°
Longitude
-120.29633°
Altitude
3,628.91 km
Speed
8.147 km/s
True Right ascension
06h 47m 26s
True Declination
0° 00' 00"
Sunlit
Object was in daylight at epoch
Visualization orbit readout
Latitude
Unknown
Longitude
Unknown
Altitude
Unknown
Speed
Unknown
Apparent Right ascension
Unknown
Apparent Declination
Unknown
Sunlit
N/A
Visualization observer readout
Local Sidereal Time
01:03:32
Azimuth
Unknown
Elevation
Unknown
Doppler factor
Unknown
Orbital elements
Apogee altitude
45,098.544 km
Perigee altitude
2,182.202 km
Semi-major axis
30,018.51 km
Eccentricity
0.71483
Inclination
22.3924°
RAAN
101.8578°
Arg. of periapsis
49.2052°
True anomaly
312.51204°
Mean anomaly
353.8964°
Eccentric anomaly
339.66063°
Mean motion
0.41731 °/min
Orbital period
862.67 mins
BSTAR
0
Loading maneuver chart data...
Computing Atmospheric mass density...
Loading historical data...
Loading historical data...
Loading historical data...
Loading historical data...
Loading historical data...
Loading historical data...
Loading historical data...

Documentation

Showing up to 5 results
|